EW8311 Weather Reports


Display with metric or nautical units.
time (UTC)temp
F
wind
direction
speed
MPH
gust
MPH
rain 1hr
in
rain 24hr
in
rain mn
in
humidity
%
barometer
mb
20210225190021 64 262 4.0 9.0 0.00 0.00 0.00 16 1013.7
20210225184548 63 290 3.0 8.0 0.00 0.00 0.00 19 1013.9
20210225183048 63 286 3.0 9.0 0.00 0.00 0.00 18 1014.0
20210225181548 63 326 7.0 12.0 0.00 0.00 0.00 19 1014.1
20210225180028 62 293 3.0 9.0 0.00 0.00 0.00 20 1014.2
20210225174526 63 285 5.0 10.0 0.00 0.00 0.00 20 1014.1
20210225173021 62 321 1.0 7.0 0.00 0.00 0.00 19 1014.1
20210225171654 60 195 0.0 4.0 0.00 0.00 0.00 16 1014.1
20210225170250 60 302 0.0 0.0 0.00 0.00 0.00 15 1014.2
20210225164627 59 227 0.0 1.0 0.00 0.00 0.00 14 1014.3
20210225163126 59 289 0.0 0.0 0.00 0.00 0.00 15 1014.3
20210225161645 57 210 0.0 0.0 0.00 0.00 0.00 14 1014.2
20210225160120 57 347 0.0 2.0 0.00 0.00 0.00 15 1013.9
20210225154710 56 323 0.0 3.0 0.00 0.00 0.00 15 1013.8
20210225153108 55 325 2.0 4.0 0.00 0.00 0.00 17 1013.9
20210225151648 53 334 0.0 2.0 0.00 0.00 0.00 20 1013.7
20210225150100 50 327 0.0 0.0 0.00 0.00 0.00 28 1013.8
20210225144600 49 327 0.0 0.0 0.00 0.00 0.00 29 1013.5
20210225143102 47 327 0.0 1.0 0.00 0.00 0.00 25 1013.2
20210225141619 46 359 0.0 0.0 0.00 0.00 0.00 27 1013.2
20210225140201 46 359 0.0 1.0 0.00 0.00 0.00 28 1012.9
20210225134551 48 359 0.0 0.0 0.00 0.00 0.00 23 1012.8
20210225133143 46 359 0.0 0.0 0.00 0.00 0.00 25 1012.7
20210225131559 47 359 0.0 0.0 0.00 0.00 0.00 23 1012.5
20210225130134 47 359 0.0 0.0 0.00 0.00 0.00 24 1012.5
20210225124636 48 359 0.0 1.0 0.00 0.00 0.00 24 1012.4
20210225123053 48 4 0.0 0.0 0.00 0.00 0.00 25 1012.4
20210225121545 48 4 0.0 1.0 0.00 0.00 0.00 23 1012.2
20210225120106 49 341 0.0 0.0 0.00 0.00 0.00 22 1012.1
20210225114613 51 341 0.0 0.0 0.00 0.00 0.00 23 1012.0
20210225113111 54 341 0.0 2.0 0.00 0.00 0.00 19 1011.8
20210225111519 54 329 0.0 2.0 0.00 0.00 0.00 20 1011.9
20210225110031 49 349 0.0 1.0 0.00 0.00 0.00 23 1011.9
20210225104533 51 39 0.0 0.0 0.00 0.00 0.00 23 1011.7
20210225103132 50 39 0.0 0.0 0.00 0.00 0.00 22 1011.7
20210225101527 50 39 0.0 0.0 0.00 0.00 0.00 22 1011.8
20210225100046 49 39 0.0 0.0 0.00 0.00 0.00 22 1011.9
20210225094547 50 39 0.0 0.0 0.00 0.00 0.00 25 1011.9
20210225093020 49 39 0.0 0.0 0.00 0.00 0.00 21 1012.1
20210225091524 50 39 0.0 0.0 0.00 0.00 0.00 29 1012.2
20210225090025 49 39 0.0 0.0 0.00 0.00 0.00 23 1012.1
20210225084610 51 39 0.0 0.0 0.00 0.00 0.00 22 1012.1
20210225083154 52 39 0.0 0.0 0.00 0.00 0.00 20 1012.2
20210225081756 54 39 0.0 0.0 0.00 0.00 0.00 20 1012.2
20210225080213 54 39 0.0 0.0 0.00 0.00 0.00 18 1012.3
20210225074620 52 34 0.0 0.0 0.00 0.00 0.00 19 1012.6
20210225073156 54 34 0.0 1.0 0.00 0.00 0.00 20 1012.5
20210225071622 52 1 0.0 0.0 0.00 0.00 0.00 20 1012.6
20210225070134 52 1 0.0 0.0 0.00 0.00 0.00 25 1012.6
20210225064626 53 1 0.0 1.0 0.00 0.00 0.00 25 1012.5
20210225063143 53 351 0.0 0.0 0.00 0.00 0.00 23 1012.5
20210225061545 54 335 0.0 1.0 0.00 0.00 0.00 19 1012.6
20210225060140 54 343 0.0 0.0 0.00 0.00 0.00 27 1012.5
20210225054615 55 343 0.0 0.0 0.00 0.00 0.00 19 1012.5
20210225053128 57 343 0.0 2.0 0.00 0.00 0.00 19 1012.5
20210225051643 58 343 0.0 2.0 0.00 0.00 0.00 16 1012.3
20210225050119 59 349 0.0 2.0 0.00 0.00 0.00 16 1012.2
20210225044549 58 334 0.0 2.0 0.00 0.00 0.00 18 1011.8
20210225043148 57 13 0.0 0.0 0.00 0.00 0.00 21 1011.9
20210225041654 58 13 0.0 0.0 0.00 0.00 0.00 18 1011.5
20210225040111 60 13 0.0 0.0 0.00 0.00 0.00 15 1011.3
20210225034720 61 325 0.0 0.0 0.00 0.00 0.00 15 1011.1
20210225033305 64 103 0.0 3.0 0.00 0.00 0.00 13 1010.9
20210225031638 67 317 2.0 7.0 0.00 0.00 0.00 10 1010.7
20210225030120 68 317 4.0 9.0 0.00 0.00 0.00 10 1010.6
20210225024551 69 334 4.0 8.0 0.00 0.00 0.00 9 1010.4
20210225023058 69 311 5.0 9.0 0.00 0.00 0.00 10 1010.2
20210225021626 69 312 4.0 10.0 0.00 0.00 0.00 10 1010.1
20210225020101 70 339 6.0 12.0 0.00 0.00 0.00 10 1010.1
20210225014621 70 330 5.0 11.0 0.00 0.00 0.00 10 1010.0
20210225013239 70 310 5.0 11.0 0.00 0.00 0.00 10 1009.8
20210225011559 71 320 5.0 11.0 0.00 0.00 0.00 10 1009.6
20210225010132 72 302 4.0 8.0 0.00 0.00 0.00 10 1009.6
20210225004555 73 321 8.0 13.0 0.00 0.00 0.00 9 1009.6
20210225003210 74 314 5.0 11.0 0.00 0.00 0.00 9 1009.8
20210225001605 74 7 6.0 15.0 0.00 0.00 0.00 9 1009.8
20210225000120 75 320 2.0 11.0 0.00 0.00 0.00 10 1009.7
20210224234534 75 331 8.0 12.0 0.00 0.00 0.00 10 1009.8
20210224233050 75 309 6.0 10.0 0.00 0.00 0.00 10 1010.0
20210224231554 75 304 5.0 15.0 0.00 0.00 0.00 10 1009.8
20210224230028 75 311 7.0 11.0 0.00 0.00 0.00 9 1009.9
20210224224601 75 328 5.0 13.0 0.00 0.00 0.00 10 1010.1
20210224223047 75 311 4.0 17.0 0.00 0.00 0.00 9 1010.1
20210224221532 75 337 7.0 13.0 0.00 0.00 0.00 9 1010.3
20210224220121 75 264 3.0 11.0 0.00 0.00 0.00 9 1010.4
20210224214521 75 312 4.0 12.0 0.00 0.00 0.00 10 1010.8
20210224213036 74 287 2.0 11.0 0.00 0.00 0.00 10 1010.9
20210224211517 74 333 4.0 13.0 0.00 0.00 0.00 9 1011.0
20210224210147 75 318 3.0 9.0 0.00 0.00 0.00 10 1011.2
20210224204735 74 275 5.0 10.0 0.00 0.00 0.00 10 1011.5
20210224203121 75 337 4.0 8.0 0.00 0.00 0.00 9 1011.6
20210224201713 74 286 3.0 12.0 0.00 0.00 0.00 10 1012.1
20210224200142 73 336 2.0 8.0 0.00 0.00 0.00 10 1012.3
20210224194610 73 320 1.0 5.0 0.00 0.00 0.00 11 1012.6
20210224193155 73 328 1.0 8.0 0.00 0.00 0.00 11 1012.9
20210224191617 73 233 1.0 4.0 0.00 0.00 0.00 11 1013.2